CST,Max TemperatureF,Mean TemperatureF,Min TemperatureF,Max Dew PointF,MeanDew PointF,Min DewpointF,Max Humidity, Mean Humidity, Min Humidity, Max Sea Level PressureIn, Mean Sea Level PressureIn, Min Sea Level PressureIn, Max VisibilityMiles, Mean VisibilityMiles, Min VisibilityMiles, Max Wind SpeedMPH, Mean Wind SpeedMPH, Max Gust SpeedMPH,PrecipitationIn, CloudCover, Events, WindDirDegrees
2013-12-1,55,47,39,45,39,32,87,73,62,30.21,30.07,29.91,10,9,1,9,5,,0.00,7,,177
2013-12-2,59,49,39,52,44,34,93,84,72,29.90,29.79,29.72,10,4,0,8,3,,0.00,6,,156
2013-12-3,57,50,44,54,49,43,94,89,82,29.75,29.70,29.66,9,3,0,13,5,,0.00,8,,142
2013-12-4,69,62,55,61,55,48,94,84,68,29.85,29.70,29.64,10,7,0,26,9,33,0.00,6,,199
2013-12-5,55,42,30,48,30,25,86,71,56,30.25,30.08,29.85,10,8,2,22,13,26,0.79,8,,348
2013-12-6,30,24,19,25,17,9,80,71,63,30.53,30.32,30.16,10,7,1,16,11,23,0.35,7,,4
2013-12-7,23,18,12,10,7,1,63,60,53,30.67,30.54,30.39,10,10,10,16,9,22,0.00,2,,20
2013-12-8,28,24,19,23,17,9,80,72,63,30.37,30.19,30.06,10,5,1,14,8,,0.00,8,,359
2013-12-9,32,30,28,23,21,18,80,68,60,30.33,30.25,30.17,10,9,4,10,5,,0.00,7,,347
2013-12-10,33,28,23,21,16,12,74,64,55,30.44,30.37,30.27,10,10,5,15,8,,0.00,2,,240
2013-12-11,37,28,19,25,18,10,80,66,55,30.64,30.48,30.36,10,8,4,13,6,,0.01,0,,327
2013-12-12,32,24,17,18,13,7,69,60,51,30.64,30.55,30.37,10,10,10,9,5,,0.00,0,,137
2013-12-13,39,32,24,30,23,16,81,68,56,30.37,30.16,29.93,10,9,2,12,5,,0.38,4,,158
2013-12-14,39,36,33,34,28,23,87,75,65,30.19,29.97,29.83,10,7,1,21,9,24,0.20,8,,323
2013-12-15,41,36,30,28,24,19,75,66,57,30.30,30.21,30.16,10,10,7,17,11,,0.00,4,,238
2013-12-16,57,45,33,43,33,27,76,68,54,30.16,30.11,30.07,10,10,7,15,12,,0.00,0,,193
2013-12-17,55,42,30,37,30,25,80,63,44,30.33,30.22,30.13,10,10,9,18,6,22,0.00,0,,307
2013-12-18,53,40,28,39,31,21,80,66,47,30.34,30.22,30.06,10,10,10,20,7,18,0.00,0,,171
2013-12-19,57,50,44,50,43,36,82,74,62,30.07,29.98,29.86,10,10,10,20,15,26,0.00,3,,179
2013-12-20,66,62,57,61,56,52,94,83,77,29.91,29.84,29.75,10,10,6,23,16,28,0.10,7,,187
2013-12-21,64,53,42,63,45,37,94,88,81,29.75,29.64,29.49,10,9,1,31,11,37,5.10,8,Thunderstorm,351
2013-12-22,48,40,33,45,33,21,87,71,56,30.30,29.99,29.72,10,10,3,21,10,18,0.04,7,,285
2013-12-23,37,32,26,21,18,12,64,55,45,30.56,30.47,30.30,10,10,10,17,11,,0.00,3,,331
2013-12-24,28,24,19,14,9,1,64,53,42,30.66,30.55,30.41,10,10,10,16,11,,0.00,0,,50
2013-12-25,26,25,24,16,14,12,69,64,59,30.41,30.41,30.39,10,10,10,7,1,,0.00,0,,126
2013-12-26,,,,,,,,,,30.42,30.42,30.42,,,,7,7,,0.00,,,0
2013-12-27,51,43,35,36,32,28,75,64,50,30.47,30.38,30.35,10,10,10,12,7,,0.00,0,,190
2013-12-28,46,38,30,36,31,25,81,73,57,30.35,30.18,29.99,10,9,1,7,3,,0.00,3,,171
2013-12-29,50,38,26,36,28,14,81,67,55,30.27,30.07,29.95,10,10,7,21,9,26,0.00,4,,282
2013-12-30,30,27,24,16,12,9,69,56,44,30.35,30.30,30.26,10,9,2,14,8,17,0.00,2,,3
2013-12-31,44,32,21,27,20,12,80,65,48,30.46,30.37,30.28,10,10,10,14,6,,0.00,0,,191